Startseite
Über Mich
AHP4
Galerie
Sehschlangen
Tourenbuch
Bookmarks
Elektronik
Bewertung
Geschichten
[Tagesmessung] [Jahreswerte] [Information]

Messwerte vom 13.01.2022

Die letzten Messwerte von 23:58:48 Uhr:
KategorieMesswert
Temperatur [°C]3
Luftdruck [mBar]1017
Sonneneinstrahlung0
Wind [km/h]11 aus Nordwest
Niederschlag [l/m²]0
rel.Luftfeucht.96.6%
CO2 [ppm]404

Diagramme
Messwerte vom 13.01.2022
Tagesaggregation
KategorieMinimumMaximumSchnittSumme
Temperatur [°C]263.1000
Luftdruck [mBar]101710221019.7542
Sonneneinstrahlung23359.0313
Wind [km/h]20
rF [%]94.496.696.55
Niederschlag [l/m²]0.2575
CO2 [ppm]404878704.1
Einordnung alsKalter Tag

Messungen an benachbarten Tagen: Zur Jahresaggregation 2022
Tabelle aller Messwerte
UhrzeitTemperatur [°C]Luftdruck [mBar]SonneWind [km/h]RichtungRegen [l/m²]rF [%]CO2 [ppm]
00:01:48 2 1021 0 4 SW 0 96.6 878
00:04:48 2 1021 0 5 SW 0 96.6 875
00:07:47 2 1021 0 9 W 0 96.6 873
00:10:48 2 1021 0 3 SW 0 96.6 875
00:13:47 2 1021 0 6 SW 0 96.6 873
00:16:48 2 1021 0 5 NW 0 96.6 869
00:19:46 2 1022 0 4 S 0 96.6 859
00:22:48 2 1021 0 3 SW 0 96.6 862
00:25:48 2 1021 0 5 NW 0 96.6 869
00:28:47 2 1021 0 5 SW 0 96.6 875
00:31:46 2 1021 0 8 W 0 96.6 867
00:34:45 2 1021 0 4 SW 0 96.6 867
00:37:49 2 1022 0 5 NW 0 96.6 867
00:40:48 2 1021 0 4 SO 0 96.6 868
00:43:48 2 1021 0 2 NW 0 96.6 872
00:46:46 2 1021 0 3 W 0 96.6 862
00:49:47 2 1021 0 3 W 0 96.6 854
00:52:47 2 1021 0 4 SW 0 96.6 856
00:55:46 2 1021 0 3 NW 0 96.6 853
00:58:47 2 1021 0 3 SW 0 96.6 852
01:01:46 2 1021 0 7 S 0 96.6 842
01:04:47 2 1021 0 3 S 0 96.6 831
01:07:45 2 1021 0 3 W 0 96.6 834
01:10:48 2 1021 0 5 NW 0 96.6 852
01:13:50 2 1021 0 1 NO 0 96.6 861
01:16:45 2 1021 0 5 NW 0 96.6 863
01:19:48 2 1021 0 8 W 0 96.6 865
01:22:48 3 1021 0 6 SW 0 96.6 863
01:25:48 3 1021 0 7 NW 0 96.6 849
01:28:47 3 1021 0 11 W 0 96.6 834
01:31:46 3 1021 0 3 W 0 96.6 834
01:34:47 3 1021 0 9 W 0 96.6 838
01:37:46 3 1021 0 3 S 0 96.6 849
01:40:49 3 1021 0 7 SW 0 96.6 839
01:43:48 2 1021 0 3 NO 0 96.6 826
01:46:46 2 1021 0 8 W 0 96.6 826
01:49:47 2 1021 0 5 S 0 96.6 826
01:52:46 2 1021 0 7 SW 0 96.6 830
01:55:46 2 1021 0 5 SW 0 96.6 824
01:58:48 2 1021 0 6 S 0 96.6 824
02:01:47 2 1021 0 5 NW 0 96.6 828
02:04:47 2 1021 0 5 SW 0 96.6 831
02:07:49 2 1021 0 3 NW 0 96.6 826
02:10:47 2 1021 0 4 S 0 96.6 814
02:13:45 2 1021 0 9 W 0 96.6 817
02:16:47 2 1021 0 9 SW 0 96.6 819
02:19:47 2 1021 0 3 W 0 96.6 812
02:22:48 2 1021 0 10 W 0 96.6 817
02:25:46 2 1021 0 4 N 0 96.6 811
02:28:45 2 1021 0 7 W 0 96.6 811
02:31:47 2 1021 0 5 SW 0 96.6 799
02:34:46 2 1021 0 7 W 0 96.6 805
02:37:47 2 1021 0 5 SW 0 96.6 802
02:40:49 2 1021 0 7 SW 0 96.6 797
02:43:46 2 1021 0 8 W 0 96.6 793
02:46:48 2 1021 0 7 NW 0 96.6 791
02:49:47 2 1021 0 9 SW 0 96.6 788
02:52:46 2 1021 0 14 N 0 96.6 782
02:55:46 2 1021 0 8 NO 0 96.6 770
02:58:47 2 1021 0 11 S 0 96.6 772
03:01:46 2 1021 0 7 SW 0 96.6 766
03:04:47 2 1021 0 7 S 0 96.6 757
03:07:47 2 1021 0 12 SW 0 96.6 763
03:10:45 2 1021 0 7 W 0 96.6 761
03:13:47 2 1021 0 4 SW 0 96.6 767
03:16:49 3 1021 0 2 SW 0 96.6 769
03:19:47 3 1021 0 8 NW 0 96.6 779
03:22:49 3 1021 0 8 SW 0 96.6 774
03:25:47 3 1021 0 11 SW 0 96.6 770
03:28:46 3 1021 0 6 N 0 96.6 768
03:31:47 3 1021 0 10 N 0 96.6 764
03:34:47 2 1021 0 6 NW 0 96.6 750
03:37:48 2 1021 0 13 SW 0 96.6 743
03:40:48 2 1021 0 10 SW 0 96.6 749
03:43:48 2 1021 0 4 S 0 96.6 746
03:46:48 2 1021 0 5 W 0 96.6 743
03:49:48 2 1021 0 5 SO 0 96.6 744
03:52:50 2 1021 0 6 NW 0 96.6 753
03:55:46 2 1021 0 8 N 0 96.6 753
03:58:47 2 1021 0 7 W 0 96.6 753
04:01:47 2 1021 0 6 NW 0 96.6 749
04:04:47 2 1021 0 12 W 0 96.6 747
04:07:49 2 1021 0 16 NW 0 96.6 746
04:10:48 2 1020 0 9 NW 0 96.6 744
04:13:47 2 1021 0 10 W 0 96.6 738
04:16:48 2 1021 0 4 SW 0 96.6 739
04:19:47 2 1021 0 4 W 0 96.6 735
04:22:47 2 1021 0 10 S 0 96.6 744
04:25:47 2 1021 0 9 W 0 96.6 741
04:28:48 2 1020 0 4 W 0 96.6 741
04:31:48 2 1020 0 7 NW 0 96.6 741
04:34:46 2 1021 0 6 W 0 96.6 738
04:37:49 2 1021 0 11 SW 0 96.6 738
04:40:48 2 1021 0 5 SW 0 96.6 738
04:43:48 2 1021 0 12 SW 0 96.6 735
04:46:46 2 1021 0 8 W 0 96.6 728
04:49:47 2 1021 0 3 W 0 96.6 732
04:52:45 2 1021 0 5 W 0 96.6 730
04:55:47 2 1020 0 5 SW 0 96.6 729
04:58:48 2 1020 0 5 SW 0 96.6 727
05:01:47 2 1021 0 4 W 0 96.6 729
05:04:48 2 1020 0 4 0 96.6 732
05:07:48 2 1021 0 6 W 0 96.6 727
05:10:50 2 1021 0 12 NW 0 96.6 734
05:13:48 2 1020 0 4 NO 0 96.6 726
05:16:46 2 1020 0 5 SW 0 96.6 720
05:19:46 2 1021 0 1 W 0 96.6 717
05:22:50 2 1020 0 6 NW 0 96.6 726
05:25:49 2 1021 0 6 NW 0 96.6 726
05:28:48 2 1020 0 9 W 0 96.6 718
05:31:49 2 1020 0 3 SW 0 96.6 723
05:34:46 2 1021 0 9 S 0 96.6 718
05:37:45 2 1020 0 8 SW 0 96.6 731
05:40:48 2 1020 0 4 SW 0 96.6 720
05:43:47 2 1020 0 6 N 0 96.6 720
05:46:49 2 1020 0 8 SW 0 96.6 722
05:49:48 2 1021 0 6 SW 0 96.6 723
05:52:47 2 1021 0 8 W 0 96.6 714
05:55:48 2 1020 0 5 W 0 96.6 729
05:58:45 2 1021 0 6 SW 0 96.6 725
06:01:47 2 1020 0 5 NW 0 96.6 728
06:04:46 2 1021 0 2 O 0 96.6 724
06:07:49 2 1020 0 10 SW 0 96.6 728
06:10:45 2 1021 0 5 S 0 96.6 732
06:13:48 2 1020 0 1 S 0 96.6 728
06:16:48 2 1020 0 5 SW 0 96.6 718
06:19:45 2 1020 0 3 N 0 96.6 718
06:22:46 2 1020 0 7 SW 0 96.6 730
06:25:47 2 1020 0 9 W 0 96.6 724
06:28:47 2 1021 0 7 NW 0 96.6 718
06:31:50 2 1020 0 6 SW 0 96.6 712
06:34:48 2 1020 0 8 S 0 96.6 720
06:37:48 2 1021 0 8 W 0 96.6 720
06:40:51 2 1020 0 10 SO 0 96.6 720
06:43:49 2 1021 0 4 W 0 96.6 715
06:46:45 2 1020 0 4 S 0 96.6 717
06:49:48 2 1021 0 12 SW 0 96.6 712
06:52:47 2 1020 0 3 SW 0 96.6 708
06:55:49 2 1020 0 4 SO 0 96.6 717
06:58:49 2 1021 0 3 NW 0 96.6 720
07:01:47 2 1021 0 7 SW 0 96.6 721
07:04:47 2 1021 0 8 SW 0 96.6 709
07:07:47 2 1020 0 5 W 0 96.6 704
07:10:50 2 1020 0 6 SW 0 96.6 702
07:13:46 2 1020 0 4 SW 0 96.6 700
07:16:48 2 1020 0 6 SW 0 96.6 700
07:19:47 2 1020 0 6 SW 0 96.6 694
07:22:47 2 1020 0 6 W 0 96.6 702
07:25:50 2 1020 0 11 NW 0 96.6 700
07:28:46 2 1020 0 8 W 0 96.6 699
07:31:48 2 1020 0 8 S 0 96.6 705
07:34:47 2 1021 0 7 SW 0 96.6 702
07:37:47 2 1020 0 8 W 0 96.6 692
07:40:50 2 1020 0 9 NW 0 96.6 700
07:43:47 2 1020 0 5 W 0 96.6 702
07:46:48 2 1021 0 12 SW 0 96.6 700
07:49:48 2 1020 0 7 S 0 96.6 703
07:52:45 2 1020 0 12 O 0 96.6 711
07:55:48 2 1020 0 6 SW 0 96.6 716
07:58:46 2 1020 4 7 W 0 96.6 718
08:01:47 2 1021 6 5 N 0 96.6 709
08:04:48 2 1020 8 2 SW 0 96.6 703
08:07:49 2 1020 13 10 NW 0 96.6 705
08:10:50 3 1021 17 9 SW 0 96.6 718
08:13:48 3 1020 21 6 W 0 96.6 741
08:16:49 3 1021 27 14 S 0 96.6 762
08:19:48 3 1020 30 14 NW 0 96.6 764
08:22:50 3 1021 42 12 SW 0 96.6 749
08:25:49 3 1021 51 5 SW 0 96.6 739
08:28:46 3 1020 49 2 SW 0 96.6 741
08:31:48 3 1021 62 7 W 0 96.6 750
08:34:46 3 1021 71 6 SW 0 96.6 753
08:37:49 3 1020 78 5 NW 0 96.6 764
08:40:49 3 1020 91 7 SW 0 96.6 764
08:43:48 3 1020 100 11 N 0 96.6 769
08:46:48 3 1020 104 8 W 0 96.6 767
08:49:49 3 1020 106 3 SW 0 96.6 772
08:52:48 3 1021 109 8 0 96.6 779
08:55:51 3 1020 109 11 SW 0 96.6 788
08:58:48 3 1020 102 5 NW 0 96.6 796
09:01:48 3 1020 99 10 W 0 96.6 801
09:04:49 3 1020 102 5 W 0 96.6 806
09:07:50 3 1021 105 11 SW 0 96.6 813
09:10:50 3 1020 99 8 S 0 96.6 809
09:13:48 3 1020 107 8 SW 0 96.6 809
09:16:48 3 1021 103 6 SW 0 96.6 808
09:19:49 3 1021 101 8 NW 0 96.6 814
09:22:51 3 1021 107 4 NW 0 96.6 823
09:25:48 3 1021 112 13 W 0 96.6 823
09:28:49 3 1020 115 5 SW 0 96.6 824
09:31:46 3 1021 120 7 0 96.6 820
09:34:47 3 1021 124 11 W 0 96.6 821
09:37:47 3 1020 136 8 N 0 96.6 826
09:40:48 3 1021 142 11 W 0 96.6 840
09:43:48 3 1021 144 9 SW 0 96.6 848
09:46:49 3 1021 151 4 NW 0 96.6 855
09:49:48 3 1020 153 5 W 0 96.6 857
09:52:50 3 1021 157 6 NW 0 96.6 864
09:55:47 3 1021 156 10 W 0 96.6 864
09:58:53 3 1021 158 5 SW 0 96.6 856
10:01:49 3 1021 156 13 W 0 96.6 856
10:04:49 3 1020 158 7 NO 0 96.6 864
10:07:49 3 1021 160 4 NW 0 96.6 859
10:10:50 3 1021 161 6 W 0 96.6 849
10:13:49 3 1021 158 7 S 0 96.6 852
10:16:48 3 1021 163 5 W 0 96.6 850
10:19:50 3 1021 162 6 SW 0 96.6 852
10:22:47 3 1021 160 12 S 0 96.6 849
10:25:48 3 1021 168 12 NW 0 96.6 849
10:28:49 3 1020 168 8 NW 0 96.6 838
10:31:48 3 1021 164 8 NW 0 96.6 844
10:34:50 3 1021 169 13 SW 0 96.6 843
10:37:51 3 1021 168 6 W 0 96.6 838
10:40:52 3 1020 170 17 NW 0 96.6 836
10:43:47 3 1021 173 10 W 0 96.6 829
10:46:49 3 1021 172 8 SW 0 96.6 823
10:49:52 3 1021 173 15 SW 0 96.6 818
10:52:49 3 1021 176 9 W 0 96.6 820
10:55:47 3 1021 178 9 SW 0 96.6 816
10:58:47 3 1021 176 11 W 0 96.6 818
11:01:48 3 1021 180 9 SW 0 96.6 821
11:04:49 3 1021 185 5 SW 0 96.6 820
11:07:47 3 1021 183 14 NW 0 96.6 821
11:10:48 3 1021 185 7 W 0 96.6 818
11:13:50 3 1021 182 9 SW 0 96.6 809
11:16:47 3 1021 178 12 W 0 96.6 802
11:19:46 4 1021 185 3 W 0 96.6 802
11:22:48 4 1021 182 10 W 0 96.6 792
11:25:49 4 1020 182 8 SW 0 96.6 799
11:28:50 4 1021 188 11 W 0 96.6 803
11:31:47 4 1021 192 8 W 0 96.6 795
11:34:48 4 1021 191 10 W 0 96.6 795
11:37:49 4 1021 196 11 NW 0 96.6 794
11:40:47 4 1021 197 5 W 0 96.6 798
11:43:51 4 1021 196 6 SW 0 96.6 803
11:46:46 4 1020 202 5 SW 0 96.6 802
11:49:46 4 1021 199 7 S 0 96.6 797
11:52:49 4 1021 201 5 SO 0 96.6 795
11:55:49 4 1021 192 7 W 0 96.6 798
11:58:48 4 1021 195 10 W 0 96.6 790
12:01:48 4 1020 197 4 SW 0 96.6 802
12:04:47 4 1021 202 12 0 96.6 800
12:07:48 4 1020 200 10 W 0 96.6 802
12:10:48 4 1021 198 0 O 0 96.6 800
12:13:47 4 1020 199 4 W 0 96.6 795
12:16:47 4 1020 199 7 W 0 96.6 782
12:19:48 4 1020 201 13 NW 0 96.6 770
12:22:50 4 1021 200 10 SW 0 96.6 770
12:25:49 4 1020 200 15 W 0 96.6 767
12:28:49 4 1021 199 6 SW 0 96.6 761
12:31:47 4 1020 204 14 W 0 96.6 759
12:34:48 4 1020 205 2 W 0 96.6 768
12:37:49 4 1020 202 4 NW 0 96.6 772
12:40:48 4 1020 199 6 SW 0 96.6 780
12:43:48 4 1020 206 6 SW 0 96.6 785
12:46:46 4 1020 207 2 N 0 96.6 785
12:49:50 4 1020 211 19 SW 0.2575 96.6 773
12:52:49 5 1020 208 13 SW 0 96.6 764
12:55:48 5 1020 206 13 NW 0 96.6 764
12:58:47 5 1020 205 7 S 0 96.6 767
13:01:47 5 1019 205 9 W 0 96.6 779
13:04:50 5 1020 190 7 W 0 96.6 782
13:07:46 4 1020 190 6 W 0 96.6 776
13:10:49 4 1019 194 4 SO 0 96.6 783
13:13:49 4 1020 199 13 NW 0 96.6 784
13:16:49 4 1020 200 5 SW 0 96.6 779
13:19:49 4 1020 198 9 W 0 96.6 778
13:22:49 4 1020 199 5 SW 0 96.6 770
13:25:47 5 1019 202 4 SW 0 96.6 764
13:28:49 5 1019 209 8 W 0 96.6 752
13:31:50 5 1019 217 6 W 0 96.6 747
13:34:47 5 1020 214 11 SW 0 96.6 738
13:37:49 5 1019 208 5 W 0 96.6 746
13:40:47 5 1019 214 13 SW 0 96.6 749
13:43:47 5 1020 220 15 W 0 96.6 753
13:46:47 5 1019 222 15 W 0 96.6 759
13:49:47 5 1020 210 7 W 0 96.6 758
13:52:49 5 1019 213 7 NO 0 96.6 755
13:55:48 5 1020 211 7 NW 0 96.5 750
13:58:46 5 1019 214 19 S 0 96.4 745
14:01:47 5 1019 213 8 W 0 96.2 747
14:04:48 5 1019 216 5 SW 0 96.1 741
14:07:48 5 1019 220 6 W 0 96.4 733
14:10:48 5 1019 214 13 W 0 96.5 737
14:13:48 5 1019 219 8 SW 0 96.5 732
14:16:47 5 1018 227 6 O 0 96.5 727
14:19:49 5 1019 209 14 SW 0 96.5 718
14:22:50 5 1020 221 3 SW 0 96.2 720
14:25:48 5 1018 212 5 SW 0 96 720
14:28:48 5 1019 222 7 W 0 96 720
14:31:48 5 1018 223 6 SW 0 96.3 717
14:34:47 5 1019 227 6 SW 0 96.5 712
14:37:47 5 1019 220 10 W 0 96.6 709
14:40:48 5 1018 227 6 SW 0 96.4 703
14:43:49 5 1019 231 7 NW 0 95.9 707
14:46:46 6 1019 229 5 SW 0 95.5 715
14:49:50 5 1019 233 2 SW 0 95 726
14:52:50 5 1019 231 20 SW 0 94.4 723
14:55:49 5 1018 228 8 W 0 94.5 724
14:58:49 5 1019 222 5 SW 0 94.9 726
15:01:50 5 1019 215 14 SW 0 94.8 727
15:04:45 5 1018 205 5 N 0 94.7 729
15:07:49 5 1018 201 8 S 0 95 728
15:10:48 5 1019 214 8 NW 0 95.3 730
15:13:48 5 1019 216 6 W 0 95.7 729
15:16:47 5 1018 213 5 SW 0 96.2 726
15:19:50 5 1019 215 5 SW 0 96.5 733
15:22:48 5 1019 204 3 SW 0 96.6 727
15:25:46 5 1019 193 3 S 0 96.6 724
15:28:47 5 1019 194 2 NO 0 96.5 723
15:31:46 5 1019 194 9 W 0 96.5 720
15:34:48 5 1019 189 5 SW 0 96.6 718
15:37:47 5 1019 179 4 SW 0 96.6 714
15:40:49 5 1019 167 10 W 0 96.6 706
15:43:48 5 1019 154 12 W 0 96.6 708
15:46:49 5 1019 153 14 SW 0 96.6 706
15:49:46 5 1020 133 6 SW 0 96.6 703
15:52:47 5 1019 138 6 SW 0 96.6 700
15:55:47 5 1019 129 9 W 0 96.6 705
15:58:48 4 1018 133 10 NW 0 96.6 712
16:01:48 4 1019 132 7 SW 0 96.6 719
16:04:48 4 1020 132 0 NW 0 96.6 710
16:07:48 4 1018 126 4 SW 0 96.6 717
16:10:48 4 1020 122 5 S 0 96.6 719
16:13:47 4 1019 101 6 S 0 96.6 723
16:16:47 4 1019 91 4 S 0 96.6 719
16:19:47 4 1019 86 2 W 0 96.6 719
16:22:48 4 1020 78 17 NW 0 96.6 720
16:25:48 4 1019 65 7 SW 0 96.6 720
16:28:47 4 1019 59 13 NW 0 96.6 720
16:31:48 4 1019 51 1 SW 0 96.6 721
16:34:48 4 1019 44 4 SO 0 96.6 724
16:37:46 4 1019 36 4 W 0 96.6 728
16:40:46 4 1019 31 3 N 0 96.6 728
16:43:49 4 1019 24 5 W 0 96.6 715
16:46:47 4 1019 23 5 W 0 96.6 715
16:49:48 4 1020 23 5 SW 0 96.6 715
16:52:48 4 1020 12 8 W 0 96.6 719
16:55:49 4 1020 10 5 W 0 96.6 720
16:58:47 4 1019 6 9 W 0 96.6 729
17:01:49 4 1020 5 5 NW 0 96.6 724
17:04:50 4 1019 3 3 W 0 96.6 727
17:07:47 4 1019 0 13 W 0 96.6 723
17:10:46 4 1019 0 5 SO 0 96.6 718
17:13:44 4 1019 0 11 S 0 96.6 714
17:16:46 4 1019 0 9 SW 0 96.6 711
17:19:48 4 1019 0 10 NW 0 96.6 705
17:22:45 4 1019 0 12 0 96.6 700
17:25:44 4 1019 0 8 W 0 96.6 711
17:28:47 4 1020 0 10 W 0 96.6 706
17:31:47 4 1020 0 10 W 0 96.6 714
17:34:45 4 1019 0 5 S 0 96.6 708
17:37:48 4 1020 0 12 NW 0 96.6 709
17:40:50 4 1020 0 7 0 96.6 707
17:43:46 4 1020 0 8 SW 0 96.6 694
17:46:47 4 1019 0 12 W 0 96.6 677
17:49:47 4 1019 0 9 NW 0 96.6 677
17:52:46 4 1019 0 9 SW 0 96.6 674
17:55:47 4 1020 0 6 SW 0 96.6 677
17:58:47 4 1019 0 7 NW 0 96.6 674
18:01:48 4 1019 0 9 W 0 96.6 685
18:04:47 4 1019 0 7 W 0 96.6 695
18:07:46 4 1019 0 3 NO 0 96.6 700
18:10:45 4 1019 0 0 W 0 96.6 702
18:13:46 4 1019 0 6 W 0 96.6 706
18:16:48 4 1018 0 3 SW 0 96.6 703
18:19:48 4 1020 0 4 SW 0 96.6 695
18:22:45 3 1019 0 6 S 0 96.6 697
18:25:47 3 1020 0 6 SW 0 96.6 703
18:28:47 3 1020 0 2 NW 0 96.6 708
18:31:49 3 1020 0 3 SW 0 96.6 708
18:34:46 3 1019 0 3 SW 0 96.6 705
18:37:46 3 1019 0 5 N 0 96.6 692
18:40:47 3 1020 0 7 W 0 96.6 691
18:43:47 3 1020 0 7 W 0 96.6 689
18:46:46 3 1019 0 4 SW 0 96.6 685
18:49:46 3 1020 0 2 W 0 96.6 683
18:52:48 3 1019 0 9 NW 0 96.6 677
18:55:49 3 1020 0 13 SW 0 96.6 669
18:58:45 3 1019 0 9 S 0 96.6 659
19:01:48 3 1019 0 10 W 0 96.6 665
19:04:47 3 1020 0 7 W 0 96.6 656
19:07:47 3 1019 0 11 S 0 96.6 662
19:10:48 3 1018 0 11 W 0 96.6 667
19:13:49 3 1019 0 4 S 0 96.6 669
19:16:47 3 1019 0 6 NW 0 96.6 667
19:19:48 3 1020 0 11 SW 0 96.6 669
19:22:47 3 1020 0 4 S 0 96.6 669
19:25:46 3 1020 0 14 W 0 96.6 671
19:28:47 3 1019 0 8 NW 0 96.6 666
19:31:48 3 1020 0 7 NW 0 96.6 667
19:34:48 3 1020 0 7 NW 0 96.6 664
19:37:47 3 1019 0 8 W 0 96.6 663
19:40:47 3 1020 0 7 S 0 96.6 668
19:43:45 3 1019 0 5 W 0 96.6 659
19:46:46 3 1019 0 8 0 96.6 652
19:49:48 3 1019 0 4 SW 0 96.6 648
19:52:45 3 1020 0 6 SW 0 96.6 656
19:55:50 3 1019 0 19 SW 0 96.6 652
19:58:46 3 1019 0 3 W 0 96.6 650
20:01:50 3 1019 0 10 W 0 96.6 651
20:04:46 3 1019 0 10 W 0 96.6 653
20:07:49 3 1019 0 4 SW 0 96.6 648
20:10:50 3 1019 0 13 NO 0 96.6 638
20:13:47 3 1019 0 10 W 0 96.6 641
20:16:48 3 1018 0 8 SW 0 96.6 638
20:19:46 3 1019 0 5 W 0 96.6 641
20:22:50 3 1019 0 11 W 0 96.6 651
20:25:47 3 1018 0 5 S 0 96.6 648
20:28:45 3 1018 0 5 SW 0 96.6 644
20:31:46 3 1018 0 4 O 0 96.6 642
20:34:46 3 1018 0 2 S 0 96.6 404
20:37:48 3 1019 0 9 SW 0 96.6 407
20:40:46 3 1018 0 11 SW 0 96.6 407
20:43:48 3 1018 0 4 S 0 96.6 404
20:46:49 3 1018 0 12 SW 0 96.6 407
20:49:49 3 1019 0 5 S 0 96.6 407
20:52:47 3 1018 0 9 W 0 96.6 404
20:55:45 3 1018 0 9 S 0 96.6 407
20:58:49 3 1018 0 9 NW 0 96.6 404
21:01:46 3 1019 0 2 O 0 96.6 404
21:04:47 3 1019 0 6 W 0 96.6 410
21:07:47 3 1018 0 3 W 0 96.6 404
21:10:48 3 1018 0 14 W 0 96.6 407
21:13:48 3 1018 0 12 0 96.6 407
21:16:48 3 1017 0 14 W 0 96.6 407
21:19:48 3 1018 0 3 NW 0 96.6 405
21:22:47 3 1018 0 12 SW 0 96.6 404
21:25:47 3 1018 0 5 W 0 96.6 404
21:28:46 3 1018 0 2 SW 0 96.6 407
21:31:47 3 1018 0 9 S 0 96.6 407
21:34:50 3 1017 0 0 NW 0 96.6 407
21:37:50 3 1018 0 8 SW 0 96.6 407
21:40:48 3 1018 0 2 SO 0 96.6 407
21:43:46 3 1018 0 2 W 0 96.6 407
21:46:48 3 1018 0 12 SW 0 96.6 406
21:49:48 3 1018 0 3 S 0 96.6 408
21:52:47 3 1017 0 6 SW 0 96.6 410
21:55:46 3 1018 0 14 W 0 96.6 413
21:58:46 3 1017 0 3 SW 0 96.6 407
22:01:47 3 1017 0 6 S 0 96.6 410
22:04:48 3 1017 0 15 SO 0 96.6 413
22:07:47 3 1018 0 4 SW 0 96.6 413
22:10:46 3 1018 0 6 W 0 96.6 415
22:13:46 3 1017 0 9 W 0 96.6 407
22:16:48 3 1017 0 7 W 0 96.6 411
22:19:47 3 1017 0 6 SW 0 96.6 413
22:22:48 3 1018 0 13 W 0 96.6 419
22:25:50 3 1018 0 7 SW 0 96.6 410
22:28:46 3 1017 0 3 W 0 96.6 407
22:31:49 3 1018 0 10 NO 0 96.6 406
22:34:48 3 1017 0 11 N 0 96.6 407
22:37:47 3 1018 0 5 SW 0 96.6 407
22:40:50 3 1018 0 11 W 0 96.6 407
22:43:49 3 1018 0 7 W 0 96.6 408
22:46:47 3 1017 0 7 S 0 96.6 404
22:49:46 3 1017 0 9 W 0 96.6 404
22:52:47 3 1017 0 9 NO 0 96.6 407
22:55:45 3 1017 0 9 W 0 96.6 411
22:58:47 3 1018 0 7 SW 0 96.6 406
23:01:47 3 1017 0 3 SW 0 96.6 404
23:04:44 3 1017 0 4 0 96.6 407
23:07:47 3 1017 0 2 O 0 96.6 406
23:10:46 3 1017 0 5 W 0 96.6 404
23:13:46 3 1017 0 4 W 0 96.6 407
23:16:47 3 1017 0 5 SW 0 96.6 410
23:19:48 3 1017 0 6 NW 0 96.6 410
23:22:47 3 1017 0 3 O 0 96.6 416
23:25:47 3 1017 0 1 O 0 96.6 410
23:28:47 3 1017 0 5 W 0 96.6 404
23:31:46 3 1017 0 10 S 0 96.6 407
23:34:49 3 1017 0 16 SW 0 96.6 404
23:37:48 3 1017 0 3 W 0 96.6 407
23:40:49 3 1017 0 6 NW 0 96.6 404
23:43:45 3 1017 0 7 W 0 96.6 404
23:46:45 3 1017 0 5 S 0 96.6 406
23:49:47 3 1017 0 8 SW 0 96.6 406
23:52:49 3 1017 0 8 SO 0 96.6 407
23:55:47 3 1017 0 8 S 0 96.6 404
23:58:48 3 1017 0 11 NW 0 96.6 404

Letzte Änderung : 22-Jul-2022
Copyright Jens Köhler, Wolfsburg, Obere Dorfstraße 10d